DW4915 Mazarete ES current weather conditions

sailwx.info

Wind from 001

Air temperature 9.4° C
Dewpoint 6.5° C

Last reported at 2014-Dec-18 16:51 UTC.
Time now 2014-Dec-18 17:26 UTC

Location: N 40°58' W 002°11'.
View on Google Maps.

See reports from other nearby stations

  
Tides and Currents Weather Stations Pressure Air Temp Water Temp Dewpoint Dewpoint Depression Visibility Wind Speed Wind Dir Waves Ship Positions
date/time (UTC)wind fromknots sea level pressurealtimeterstation pressurevisibilityair tempwater tempwave heightnotes
2014-Dec-18 16:51 001 9.4
2014-Dec-18 16:46 360 10.0
2014-Dec-18 16:41 360 10.6
2014-Dec-18 16:31 001 11.1
2014-Dec-18 16:26 001 11.1
2014-Dec-18 16:21 359 1 gusting 4 11.1
2014-Dec-18 16:11 002 11.7
2014-Dec-18 16:06 001 0 gusting 4 11.7
2014-Dec-18 16:01 360 11.7
2014-Dec-18 15:56 001 0 gusting 4 11.7
2014-Dec-18 15:46 359 0 gusting 6 12.2
2014-Dec-18 15:41 359 12.2
2014-Dec-18 15:31 358 0 gusting 6 12.2
2014-Dec-18 15:26 001 12.2
2014-Dec-18 15:21 359 1 gusting 6 12.8
2014-Dec-18 15:11 002 5 gusting 6 12.8
2014-Dec-18 15:06 360 0 gusting 5 12.8
2014-Dec-18 14:56 001 12.8
2014-Dec-18 14:51 360 12.8
2014-Dec-18 14:41 360 0 gusting 6 13.3
2014-Dec-18 14:36 004 13.3
2014-Dec-18 14:26 359 12.8
2014-Dec-18 14:21 360 3 gusting 6 12.8
2014-Dec-18 14:16 360 13.3
2014-Dec-18 14:06 002 3 gusting 7 12.8
2014-Dec-18 14:01 002 0 gusting 6 12.8
2014-Dec-18 13:56 001 1 gusting 6 12.8
2014-Dec-18 13:51 001 3 gusting 7 12.8
2014-Dec-18 13:41 001 2 gusting 7 13.3
2014-Dec-18 13:31 360 3 gusting 8 13.3
2014-Dec-18 13:26 002 0 gusting 8 12.8
2014-Dec-18 13:21 002 4 gusting 7 12.8
2014-Dec-18 13:16 002 5 gusting 7 12.8
2014-Dec-18 13:06 011 4 gusting 6 12.8
2014-Dec-18 13:01 011 2 gusting 8 12.8
2014-Dec-18 12:56 013 6 gusting 8 12.8
2014-Dec-18 12:51 013 3 gusting 7 12.8
2014-Dec-18 12:41 013 0 gusting 6 12.2
2014-Dec-18 12:36 013 0 gusting 6 12.2
2014-Dec-18 12:26 012 2 gusting 7 12.2
2014-Dec-18 12:21 011 3 gusting 6 12.2
2014-Dec-18 12:16 012 0 gusting 6 12.2
2014-Dec-18 12:11 011 0 gusting 7 12.2
2014-Dec-18 12:01 012 1 gusting 6 11.7
2014-Dec-18 11:56 013 1 gusting 6 11.7
2014-Dec-18 11:51 014 1 gusting 7 11.7
2014-Dec-18 11:46 013 4 gusting 9 11.1
2014-Dec-18 11:41 025 2 gusting 8 11.7
2014-Dec-18 11:36 034 1 gusting 8 11.1
2014-Dec-18 11:26 032 1 gusting 6 11.1
2014-Dec-18 11:21 034 1 gusting 6 11.1
2014-Dec-18 11:16 033 1 gusting 6 11.1
2014-Dec-18 11:06 033 1 gusting 6 10.6
2014-Dec-18 11:01 033 0 gusting 6 10.6
2014-Dec-18 10:56 033 1 gusting 6 10.6
2014-Dec-18 10:51 032 2 gusting 6 10.6
2014-Dec-18 10:46 032 10.6
2014-Dec-18 10:41 033 1 gusting 6 10.6
2014-Dec-18 10:31 034 1 gusting 7 10.0
2014-Dec-18 10:26 036 2 gusting 6 10.0
2014-Dec-18 10:21 017 0 gusting 6 9.4
2014-Dec-18 10:16 013 1 gusting 6 9.4
2014-Dec-18 10:11 018 0 gusting 5 9.4
2014-Dec-18 10:01 016 1 gusting 6 8.9
2014-Dec-18 09:56 017 1 gusting 8 8.3
2014-Dec-18 09:46 013 2 gusting 6 7.8
2014-Dec-18 09:41 006 2 gusting 8 7.2
2014-Dec-18 09:36 343 3 gusting 8 6.7
2014-Dec-18 09:31 345 6.1
2014-Dec-18 09:21 344 2 gusting 3 5.6
2014-Dec-18 09:16 346 5.0
2014-Dec-18 09:06 346 3.3
2014-Dec-18 09:01 346 2.8
2014-Dec-18 08:51 347 1.7
2014-Dec-18 08:46 344 1.7
2014-Dec-18 08:41 344 1.7
2014-Dec-18 08:36 343 1.7
2014-Dec-18 08:26 346 1.1
2014-Dec-18 08:21 346 1 gusting 4 1.1
2014-Dec-18 08:16 345 0.6
2014-Dec-18 08:11 346 0.6
2014-Dec-18 08:01 346 0 gusting 4 -0.6
2014-Dec-18 07:56 347 -0.6
2014-Dec-18 07:51 345 -0.6
2014-Dec-18 07:46 348 -0.6
2014-Dec-18 07:36 346 -0.6
2014-Dec-18 07:31 345 -0.6
2014-Dec-18 07:21 347 -0.6
2014-Dec-18 07:11 345 -0.6
2014-Dec-18 07:06 346 -0.6
2014-Dec-18 07:01 347 -0.0
2014-Dec-18 06:56 347 -0.6
2014-Dec-18 06:51 346 2 gusting 3 -0.6
2014-Dec-18 06:46 345 -0.6
2014-Dec-18 05:46 345 -0.0
2014-Dec-18 05:41 348 0.6
2014-Dec-18 05:36 347 0.6
2014-Dec-18 05:31 346 0.6
2014-Dec-18 05:26 347 1.1
2014-Dec-18 05:16 347 1.1
2014-Dec-18 05:11 344 1.1
2014-Dec-18 05:06 346 1.1
2014-Dec-18 04:56 347 1.1
2014-Dec-18 04:46 347 1.1
2014-Dec-18 04:41 345 1.1
2014-Dec-18 04:36 346 1.1
2014-Dec-18 04:31 347 1.1
2014-Dec-18 04:26 346 1.1
2014-Dec-18 04:21 346 1.1
2014-Dec-18 04:11 347 1.1
2014-Dec-18 04:06 346 1.7
2014-Dec-18 03:56 347 1.1
2014-Dec-18 03:51 346 1.7
2014-Dec-18 03:46 346 1.1
2014-Dec-18 03:41 346 1.1
2014-Dec-18 03:31 346 1.7
2014-Dec-18 03:26 344 1.1
2014-Dec-18 03:21 345 1.1
2014-Dec-18 03:11 345 1.1
2014-Dec-18 03:06 348 1.7
2014-Dec-18 03:01 346 0 gusting 3 1.7
2014-Dec-18 02:56 346 2.2
2014-Dec-18 02:46 346 2.2
2014-Dec-18 02:41 347 2.8
2014-Dec-18 02:36 347 2.8
2014-Dec-18 02:31 348 2.8
2014-Dec-18 02:26 347 2 gusting 14 3.3
2014-Dec-18 02:21 341 8 gusting 13 3.3
2014-Dec-18 02:16 344 4 gusting 7 2.8
2014-Dec-18 02:06 344 2.8
2014-Dec-18 02:01 344 2.8
2014-Dec-18 01:56 344 3.3
2014-Dec-18 01:51 344 3.3
2014-Dec-18 01:41 342 3.3
2014-Dec-18 01:36 346 1 gusting 4 3.3
2014-Dec-18 01:31 344 0 gusting 4 3.9
2014-Dec-18 01:21 344 4 gusting 12 3.9
2014-Dec-18 01:16 344 4 gusting 10 3.9
2014-Dec-18 01:11 344 3 gusting 12 3.9
2014-Dec-18 01:01 350 5 gusting 15 3.9
2014-Dec-18 00:56 348 6 gusting 15 4.4
2014-Dec-18 00:51 330 8 gusting 12 4.4
2014-Dec-18 00:46 335 6 gusting 9 4.4
2014-Dec-18 00:41 337 6 gusting 12 4.4
2014-Dec-18 00:36 358 5 gusting 8 4.4
2014-Dec-18 00:31 347 5 gusting 9 4.4
2014-Dec-18 00:21 346 5 gusting 12 4.4
2014-Dec-18 00:16 347 5 gusting 12 4.4
2014-Dec-18 00:11 346 6 gusting 13 4.4
2014-Dec-18 00:01 339 7 gusting 11 4.4
2014-Dec-17 23:56 329 2 gusting 7 4.4
2014-Dec-17 23:51 329 4 gusting 13 4.4
2014-Dec-17 23:46 328 8 gusting 16 4.4
2014-Dec-17 23:41 338 13 gusting 16 4.4
2014-Dec-17 23:31 335 4 gusting 10 4.4
2014-Dec-17 23:26 335 6 gusting 11 4.4
2014-Dec-17 23:21 337 4 gusting 11 4.4
2014-Dec-17 23:16 331 5 gusting 11 4.4
2014-Dec-17 23:06 323 1 gusting 13 4.4
2014-Dec-17 23:01 329 8 gusting 13 4.4
2014-Dec-17 22:56 317 8 gusting 15 5.0
2014-Dec-17 22:51 323 6 gusting 18 5.0
2014-Dec-17 22:41 315 6 gusting 11 5.0
2014-Dec-17 22:36 314 7 gusting 13 5.0
2014-Dec-17 22:31 329 10 gusting 15 5.0
2014-Dec-17 22:26 323 12 gusting 15 5.0
2014-Dec-17 22:16 335 10 gusting 19 5.0
2014-Dec-17 22:11 335 9 gusting 19 5.0
2014-Dec-17 22:06 341 12 gusting 21 5.0
2014-Dec-17 22:01 330 12 gusting 21 5.0
2014-Dec-17 21:56 333 10 gusting 15 5.0
2014-Dec-17 21:51 325 10 gusting 15 5.0
2014-Dec-17 21:41 310 8 gusting 15 5.0
2014-Dec-17 21:36 327 12 gusting 15 5.0
2014-Dec-17 21:31 319 9 gusting 16 5.0
2014-Dec-17 21:21 322 9 gusting 15 5.0
2014-Dec-17 21:16 324 11 gusting 18 5.0
2014-Dec-17 21:06 314 10 gusting 13 5.6
2014-Dec-17 21:01 310 8 gusting 13 5.6
2014-Dec-17 20:56 329 9 gusting 13 5.0
2014-Dec-17 20:46 308 4 gusting 9 5.0
2014-Dec-17 20:41 310 4 gusting 9 5.0
2014-Dec-17 20:31 319 3 gusting 8 5.6
2014-Dec-17 20:26 321 4 gusting 8 5.0
2014-Dec-17 20:21 321 6 gusting 12 5.6
2014-Dec-17 20:11 329 6 gusting 12 5.6
2014-Dec-17 20:06 298 6 gusting 10 5.6
2014-Dec-17 19:56 319 6 gusting 8 5.6
2014-Dec-17 19:51 318 6 gusting 7 5.6
2014-Dec-17 19:46 316 3 gusting 11 5.6
2014-Dec-17 19:41 323 8 gusting 11 5.0
2014-Dec-17 19:31 329 8 gusting 12 5.0
2014-Dec-17 19:26 327 9 gusting 13 5.0
2014-Dec-17 19:21 325 11 gusting 13 5.0
2014-Dec-17 19:16 331 10 gusting 14 5.6
2014-Dec-17 19:06 335 10 gusting 12 5.6
2014-Dec-17 19:01 326 7 gusting 13 5.6
2014-Dec-17 18:51 323 9 gusting 13 5.6
2014-Dec-17 18:46 325 8 gusting 13 5.6
2014-Dec-17 18:41 333 7 gusting 16 5.6
2014-Dec-17 18:31 319 8 gusting 11 5.0
2014-Dec-17 18:26 323 7 gusting 11 5.0
2014-Dec-17 18:21 325 8 gusting 11 5.0
2014-Dec-17 18:11 322 9 gusting 13 5.0
2014-Dec-17 18:06 325 8 gusting 10 5.0
2014-Dec-17 18:01 328 6 gusting 10 5.0
2014-Dec-17 17:51 326 6 gusting 8 5.0
2014-Dec-17 17:46 327 6 gusting 8 5.0
2014-Dec-17 17:41 326 3 gusting 6 4.4
2014-Dec-17 17:36 326 1 gusting 4 5.0
2014-Dec-17 17:31 325 5.0
2014-Dec-17 17:21 326 2 gusting 4 5.0
2014-Dec-17 17:16 328 0 gusting 6 5.0
2014-Dec-17 17:11 327 4 gusting 7 5.0
2014-Dec-17 17:01 327 4 gusting 9 5.6
2014-Dec-17 16:56 327 6 gusting 9 5.6
2014-Dec-17 16:51 328 5 gusting 6 5.6
2014-Dec-17 16:41 326 5 gusting 10 5.6
2014-Dec-17 16:31 327 4 gusting 12 6.1
2014-Dec-17 16:26 326 6 gusting 12 6.1
2014-Dec-17 16:21 329 8 gusting 11 6.1
2014-Dec-17 16:11 332 7 gusting 12 6.1
2014-Dec-17 16:06 335 7 gusting 12 6.1
2014-Dec-17 16:01 335 8 gusting 12 6.7
2014-Dec-17 15:51 336 8 gusting 12 6.7
2014-Dec-17 15:46 334 6 gusting 9 6.7
2014-Dec-17 15:41 332 6 gusting 9 6.7
2014-Dec-17 15:31 335 6 gusting 8 6.7
2014-Dec-17 15:21 335 5 gusting 6 7.2
2014-Dec-17 15:16 336 3 gusting 6 7.2
2014-Dec-17 15:11 333 5 gusting 10 7.2
2014-Dec-17 15:06 335 6 gusting 10 7.2
2014-Dec-17 15:01 337 6 gusting 9 7.2
2014-Dec-17 14:51 349 1 gusting 6 7.8
2014-Dec-17 14:46 349 0 gusting 6 7.8
2014-Dec-17 14:41 353 1 gusting 4 7.8
2014-Dec-17 14:36 353 7.8
2014-Dec-17 14:31 352 1 gusting 4 7.8
2014-Dec-17 14:26 351 7.8
2014-Dec-17 14:21 354 0 gusting 4 7.8
2014-Dec-17 14:16 354 2 gusting 7 7.8
2014-Dec-17 14:11 352 3 gusting 9 7.8
2014-Dec-17 14:01 344 6 gusting 8 8.3
2014-Dec-17 13:56 347 4 gusting 7 8.3
2014-Dec-17 13:51 348 5 gusting 7 8.3
2014-Dec-17 13:41 005 2 gusting 5 8.3
2014-Dec-17 13:36 006 1 gusting 5 8.3
2014-Dec-17 13:31 004 1 gusting 5 7.8
2014-Dec-17 13:21 004 0 gusting 7 7.8
2014-Dec-17 13:16 007 1 gusting 7 7.8
2014-Dec-17 13:11 004 3 gusting 13 7.8
2014-Dec-17 13:01 354 7 gusting 11 7.8
2014-Dec-17 12:56 350 6 gusting 8 7.8
2014-Dec-17 12:51 002 2 gusting 12 7.2
2014-Dec-17 12:41 325 5 gusting 9 7.2
2014-Dec-17 12:36 336 5 gusting 9 7.2
2014-Dec-17 12:31 332 7.2
2014-Dec-17 12:26 332 3 gusting 11 6.7
2014-Dec-17 12:16 338 6 gusting 13 6.7
2014-Dec-17 12:11 335 9 gusting 13 6.7
2014-Dec-17 12:06 316 7 gusting 13 6.7
2014-Dec-17 12:01 327 10 gusting 12 6.7
2014-Dec-17 11:56 330 7 gusting 12 6.7
2014-Dec-17 11:51 344 4 gusting 13 6.7
2014-Dec-17 11:41 345 4 gusting 13 6.1
2014-Dec-17 11:36 346 7 gusting 14 6.1
2014-Dec-17 11:31 346 11 gusting 14 6.1
2014-Dec-17 11:21 346 6 gusting 14 6.1
2014-Dec-17 11:16 335 7 gusting 14 6.1
2014-Dec-17 11:11 339 8 gusting 14 6.1
2014-Dec-17 11:06 352 11 gusting 13 6.1
2014-Dec-17 11:01 356 8 gusting 14 5.6
2014-Dec-17 10:56 345 9 gusting 15 5.6
2014-Dec-17 10:46 344 6 gusting 13 5.6
2014-Dec-17 10:41 334 10 gusting 13 5.6
2014-Dec-17 10:36 340 8 gusting 13 5.6
2014-Dec-17 10:31 350 6 gusting 13 5.6
2014-Dec-17 10:26 342 8 gusting 18 5.0
2014-Dec-17 10:21 345 9 gusting 18 5.0
2014-Dec-17 10:11 347 10 gusting 16 4.4
2014-Dec-17 10:06 345 11 gusting 16 4.4
2014-Dec-17 10:01 346 7 gusting 13 4.4
2014-Dec-17 09:56 346 9 gusting 14 4.4
2014-Dec-17 09:46 344 10 gusting 19 4.4
2014-Dec-17 09:41 331 12 gusting 16 3.9
2014-Dec-17 09:36 333 13 gusting 19 3.9
2014-Dec-17 09:31 338 12 gusting 15 3.9
2014-Dec-17 09:26 337 8 gusting 14 3.9
2014-Dec-17 09:21 341 11 gusting 14 3.9
2014-Dec-17 09:11 337 12 gusting 15 3.9
2014-Dec-17 09:06 335 12 gusting 15 3.9
2014-Dec-17 09:01 335 12 gusting 16 3.9
2014-Dec-17 08:56 337 11 gusting 16 3.9
2014-Dec-17 08:51 340 11 gusting 14 3.3
2014-Dec-17 08:46 337 8 gusting 13 3.3
2014-Dec-17 08:36 343 7 gusting 10 3.3
2014-Dec-17 08:31 347 6 gusting 10 2.8
2014-Dec-17 08:26 348 7 gusting 10 2.8
2014-Dec-17 08:21 352 6 gusting 10 2.8
2014-Dec-17 08:11 352 5 gusting 7 2.2
2014-Dec-17 08:06 353 3 gusting 6 2.2
2014-Dec-17 07:56 352 1 gusting 4 1.7
2014-Dec-17 07:51 352 1 gusting 4 1.7
2014-Dec-17 07:46 352 1.7
2014-Dec-17 07:41 352 2.2
2014-Dec-17 07:31 350 2.2
2014-Dec-17 07:26 353 2 gusting 7 2.2
2014-Dec-17 07:21 351 5 gusting 8 2.2
2014-Dec-17 07:11 352 5 gusting 10 2.2
2014-Dec-17 07:06 352 6 gusting 10 2.2
2014-Dec-17 07:01 351 6 gusting 10 2.2
2014-Dec-17 06:56 352 5 gusting 10 2.2
2014-Dec-17 06:46 349 6 gusting 10 2.2
2014-Dec-17 06:41 351 6 gusting 10 1.7
2014-Dec-17 06:36 351 6 gusting 8 1.7
2014-Dec-17 06:26 351 6 gusting 10 2.2
2014-Dec-17 06:21 352 6 gusting 9 2.2
2014-Dec-17 06:16 352 5 gusting 9 2.2
2014-Dec-17 06:06 352 4 gusting 9 1.7
2014-Dec-17 06:01 353 6 gusting 9 1.7
2014-Dec-17 05:56 353 5 gusting 9 1.7
2014-Dec-17 05:46 353 6 gusting 10 1.7
2014-Dec-17 05:41 351 7 gusting 10 1.7
2014-Dec-17 05:36 354 5 gusting 9 1.1
2014-Dec-17 05:26 350 3 gusting 6 1.1
2014-Dec-17 05:21 352 3 gusting 7 1.7
2014-Dec-17 05:11 352 2 gusting 6 1.1
2014-Dec-17 05:06 354 2 gusting 6 1.1
2014-Dec-17 05:01 352 3 gusting 7 1.7
2014-Dec-17 04:56 352 3 gusting 7 1.7
2014-Dec-17 04:46 352 3 gusting 6 1.7
2014-Dec-17 04:41 352 3 gusting 9 1.7
2014-Dec-17 04:36 354 6 gusting 10 2.2
2014-Dec-17 04:31 352 6 gusting 10 1.7
2014-Dec-17 04:26 350 5 gusting 11 1.7
2014-Dec-17 04:21 352 7 gusting 11 1.7
2014-Dec-17 04:16 356 5 gusting 8 1.7
2014-Dec-17 04:06 354 4 gusting 10 1.7
2014-Dec-17 04:01 356 6 gusting 11 1.7
2014-Dec-17 03:56 354 6 gusting 11 1.7
2014-Dec-17 03:46 347 6 gusting 11 1.7
2014-Dec-17 03:41 346 6 gusting 10 1.1
2014-Dec-17 03:31 342 5 gusting 10 1.1
2014-Dec-17 03:26 340 6 gusting 10 1.1
2014-Dec-17 03:16 343 6 gusting 10 1.7
2014-Dec-17 03:11 348 6 gusting 10 1.7
2014-Dec-17 03:06 350 5 gusting 9 1.7
2014-Dec-17 03:01 351 6 gusting 12 2.2
2014-Dec-17 02:56 352 8 gusting 12 2.2
2014-Dec-17 02:46 354 8 gusting 13 2.2
2014-Dec-17 02:41 351 7 gusting 13 2.2
2014-Dec-17 02:36 352 7 gusting 14 2.2
2014-Dec-17 02:26 350 8 gusting 13 2.2
2014-Dec-17 02:21 358 8 gusting 15 2.8
2014-Dec-17 02:11 004 6 gusting 13 2.2
2014-Dec-17 02:06 351 6 gusting 11 2.2
2014-Dec-17 01:56 359 6 gusting 13 2.8
2014-Dec-17 01:51 355 6 gusting 13 2.2
2014-Dec-17 01:46 354 6 gusting 13 2.2
2014-Dec-17 01:41 354 6 gusting 13 2.2
2014-Dec-17 01:36 350 6 gusting 10 2.2
2014-Dec-17 01:26 352 6 gusting 10 2.2
2014-Dec-17 01:21 355 4 gusting 8 2.2
2014-Dec-17 01:16 356 4 gusting 8 2.2
2014-Dec-17 01:11 355 3 gusting 8 1.7
2014-Dec-17 01:01 354 1 gusting 6 1.7
2014-Dec-17 00:56 354 3 gusting 6 1.7
2014-Dec-17 00:51 353 1 gusting 5 1.7
2014-Dec-17 00:41 354 0 gusting 3 1.7
2014-Dec-17 00:36 355 2.2
2014-Dec-17 00:31 353 1 gusting 5 2.2
2014-Dec-17 00:26 355 1 gusting 8 2.2
2014-Dec-17 00:16 354 3 gusting 6 2.2
2014-Dec-17 00:11 352 4 gusting 6 1.7
2014-Dec-17 00:06 351 3 gusting 6 1.7
2014-Dec-17 00:01 352 2 gusting 5 1.7
2014-Dec-16 23:56 352 3 gusting 5 2.2
2014-Dec-16 23:51 351 2 gusting 6 2.2
2014-Dec-16 23:41 352 3 gusting 7 2.2
2014-Dec-16 23:36 352 2 gusting 7 2.2
2014-Dec-16 23:31 352 0 gusting 5 1.7
2014-Dec-16 23:26 351 2 gusting 6 1.7
2014-Dec-16 23:16 352 4 gusting 8 1.7
2014-Dec-16 23:11 351 1 gusting 4 1.7
2014-Dec-16 23:06 352 1 gusting 4 1.7
2014-Dec-16 22:56 351 4 gusting 6 1.1
2014-Dec-16 22:51 349 0 gusting 4 1.7
2014-Dec-16 22:46 352 1.7
2014-Dec-16 22:36 351 1.7
2014-Dec-16 22:31 350 1.1
2014-Dec-16 22:26 350 1.1
2014-Dec-16 22:21 350 1.1
2014-Dec-16 22:16 352 1.1
2014-Dec-16 22:11 352 1.1
2014-Dec-16 22:06 352 1.7
2014-Dec-16 21:56 352 3 gusting 5 1.7
2014-Dec-16 21:51 351 2 gusting 4 1.7
2014-Dec-16 21:46 351 1.7
2014-Dec-16 21:36 350 1.7
2014-Dec-16 21:31 351 1.7
2014-Dec-16 21:21 351 0 gusting 6 1.1
2014-Dec-16 21:16 350 3 gusting 6 0.6
2014-Dec-16 21:11 352 0 gusting 3 -0.0
2014-Dec-16 21:06 353 -0.0
2014-Dec-16 20:56 350 0 gusting 3 0.6
2014-Dec-16 20:51 352 1.1
2014-Dec-16 20:46 352 1.1
2014-Dec-16 20:36 350 1.7
2014-Dec-16 20:31 352 2.2
2014-Dec-16 20:26 351 2.2
2014-Dec-16 20:21 351 2.2
2014-Dec-16 20:16 352 2.2
2014-Dec-16 20:11 353 3 gusting 6 2.2
2014-Dec-16 20:01 351 1 gusting 5 2.8
2014-Dec-16 19:56 352 0 gusting 5 2.8
2014-Dec-16 19:51 352 2 gusting 6 3.3
2014-Dec-16 19:46 350 2 gusting 6 3.3
2014-Dec-16 19:41 352 1 gusting 6 3.9
2014-Dec-16 19:36 351 3 gusting 8 3.9
2014-Dec-16 19:26 351 5 gusting 9 4.4
2014-Dec-16 19:21 350 4 gusting 9 4.4
2014-Dec-16 19:16 350 5 gusting 7 4.4
2014-Dec-16 19:06 348 2 gusting 8 4.4
2014-Dec-16 19:01 350 6 gusting 9 4.4
2014-Dec-16 18:56 350 6 gusting 11 4.4
2014-Dec-16 18:51 348 7 gusting 11 4.4
2014-Dec-16 18:46 348 6 gusting 10 4.4